Regional Weather Roundup
Issued by NWS

Home | Current Version | Previous Version | Text Only | Print | Product List | Glossary On
Versions: 1 2 3 4 5 6 7 8 9 10 11 12 13 14 15 16 17 18 19 20 21 22 23 24 25 26 27 28 29 30 31 32 33 34 35 36 37 38 39 40 41 42 43 44 45 46 47 48 49 50
000
ASUS44 KBMX 270310
RWRAL

ALABAMA REGIONAL WEATHER ROUNDUP
NATIONAL WEATHER SERVICE BIRMINGHAM AL
900 PM CST SUN FEB 26 2017

NOTE: "FAIR" INDICATES FEW OR NO CLOUDS BELOW 12,000 FEET
WITH NO SIGNIFICANT WEATHER AND/OR OBSTRUCTIONS TO VISIBILITY.

THE REMARK "TC" DENOTES TEMPERATURE IN DEGREES CELSIUS.

ALZ001>011-014-016>018-020-270400-
NORTH ALABAMA

CITY           SKY/WX    TMP DP  RH WIND       PRES   REMARKS
MUSCLE SHOALS  FAIR      52  25  35 SE8       30.10F
HUNTSVILLE     FAIR      48  27  44 SE7       30.14S
DECATUR        FAIR      50  28  42 SE8       30.13F
HALEYVILLE     FAIR      53  24  32 SE9       30.13S
GADSDEN        FAIR      48  29  47 E7        30.19F
$$

ALZ012-013-022-023-030>036-040>044-270400-
WEST CENTRAL ALABAMA

CITY           SKY/WX    TMP DP  RH WIND       PRES   REMARKS
TUSCALOOSA     FAIR      58  24  27 SE8       30.15R
$$

ALZ015-024>027-033>036-040>044-270400-
CENTRAL ALABAMA

CITY           SKY/WX    TMP DP  RH WIND       PRES   REMARKS
BIRMINGHAM     FAIR      57  22  25 NE3       30.18S
MONTGOMERY     FAIR      54  31  41 SE8       30.19R
SHELBY CO ARPT FAIR      54  28  36 SE5       30.17S
MAXWELL AFB    FAIR      51  35  55 CALM      30.18R
GREENVILLE     FAIR      56  29  35 SE3       30.17S
$$

ALZ019-021-028-029-037-038-045>048-270400-
EAST CENTRAL ALABAMA

CITY           SKY/WX    TMP DP  RH WIND       PRES   REMARKS
ANNISTON       FAIR      48  34  58 E5        30.20S
ALEXANDER CITY FAIR      43  33  66 CALM      30.20S
AUBURN         FAIR      53  26  35 E3        30.22R
$$

ALZ051>064-270400-
SOUTHWEST ALABAMA

CITY           SKY/WX    TMP DP  RH WIND       PRES   REMARKS
MOBILE         FAIR      55  45  68 E7        30.16R
BROOKLEY FIELD FAIR      60  50  69 SE10      30.17R
EVERGREEN      FAIR      49  40  71 CALM      30.18R
$$

ALZ049-050-065>069-270400-
SOUTHEAST ALABAMA

CITY           SKY/WX    TMP DP  RH WIND       PRES   REMARKS
DOTHAN         FAIR      54  36  50 E6        30.24R
OZARK          FAIR      51  34  53 NE5       30.20R
TROY           FAIR      49  38  65 CALM      30.21R
EUFAULA        FAIR      45  37  73 CALM      30.21S
$$



USA.gov is the U.S. government's official web portal to all federal, state and local government web resources and services.